This is the latest recevied weather packets stored in our database for station/object N1OTX. If no packets are shown the sender has not sent any weather packets the latest 10 day(s).
| Time | Temp. | Humidity | Pressure | Rain* | Wind** | Luminosity | Snow |
|---|---|---|---|---|---|---|---|
| 1777844751 | 11.11° C | 36% | 1006.9 hPa | 0 mm | - | 96 W/m² | - |
| 1777841731 | 11.67° C | 36% | 1006 hPa | 0 mm | - | 125 W/m² | - |
| 1777841431 | 11.67° C | 37% | 1006 hPa | 0 mm | - | 139 W/m² | - |
| 1777840530 | 11.67° C | 34% | 1005.9 hPa | 0 mm | - | 143 W/m² | - |
| 1777839329 | 11.67° C | 37% | 1005.7 hPa | 0 mm | - | 171 W/m² | - |
| 1777838429 | 11.67° C | 40% | 1005.8 hPa | 0 mm | - | 276 W/m² | - |
| 1777838129 | 11.67° C | 40% | 1005.8 hPa | 0 mm | - | 228 W/m² | - |
| 1777836351 | 11.67° C | 42% | 1005.9 hPa | 0 mm | - | 130 W/m² | - |
| 1777835730 | 12.22° C | 42% | 1005.9 hPa | 0 mm | - | 197 W/m² | - |
| 1777835130 | 12.22° C | 43% | 1005.8 hPa | 0 mm | - | 374 W/m² | - |
| 1777833930 | 11.67° C | 44% | 1005.9 hPa | 0 mm | - | 363 W/m² | - |
| 1777833329 | 11.67° C | 45% | 1005.9 hPa | 0 mm | - | 366 W/m² | - |
| 1777831230 | 10.56° C | 50% | 1006.1 hPa | 0 mm | - | 216 W/m² | - |
| 1777830330 | 11.11° C | 48% | 1006 hPa | 0 mm | - | 287 W/m² | - |
| 1777828529 | 10.56° C | 47% | 1006 hPa | 0 mm | - | 369 W/m² | - |
| 1777828229 | 10.56° C | 46% | 1006 hPa | 0 mm | - | 423 W/m² | - |
| 1777825830 | 9.44° C | 55% | 1006 hPa | 0 mm | - | 137 W/m² | - |
| 1777824331 | 8.89° C | 64% | 1006.1 hPa | 0 mm | - | 227 W/m² | - |
| 1777823729 | 8.33° C | 66% | 1006 hPa | 0 mm | - | 207 W/m² | - |
| 1777822530 | 8.33° C | 69% | 1006.1 hPa | 0 mm | - | 243 W/m² | - |
| 1777821630 | 8.33° C | 70% | 1006.2 hPa | 0 mm | - | 226 W/m² | - |
| 1777818629 | 6.67° C | 83% | 1006.2 hPa | 0 mm | - | 86 W/m² | - |
| 1777817730 | 7.22° C | 79% | 1006.3 hPa | 0 mm | - | 121 W/m² | - |
| 1777816870 | 6.67° C | 81% | 1006.3 hPa | 0 mm | - | 186 W/m² | - |
| 1777814751 | 6.67° C | 79% | 1006.5 hPa | 0 mm | - | 112 W/m² | - |
* Rain latest hour (hover to see other rain measurements)
** Current wind speed in m/s (hover to see current wind gust speed)